Location: Bruch
(44.2051°N, 0.4120°E)
Time: 10:00:11
(UTC+00:00)

Cosmos 1844 Rocket - Pass Details

Date: 29 November 2020
Orbit: 824 x 845 km, 71.0° (Epoch: 25 January)

Event Time Altitude Azimuth Distance (km) Brightness Sun altitude
Rises 05:51:45 0° 216° (SW) 3,374 5.6 -14.0°
Reaches altitude 10° 05:54:13 10° 220° (SW) 2,447 4.9 -13.6°
Maximum altitude 05:59:44 57° 299° (WNW) 983 2.7 -12.6°
Drops below altitude 10° 06:05:20 10° 18° (NNE) 2,473 5.1 -11.7°
Sets 06:07:51 0° 23° (NNE) 3,413 5.9 -11.2°
